Regional Weather Roundup
Issued by NWS Northern Indiana

Home | Current Version | Previous Version | Graphics & Text | Print | Product List | Glossary On
Versions: 1 2 3 4 5 6 7 8 9 10 11 12 13 14 15 16 17 18 19 20 21 22 23 24 25 26 27 28 29 30 31 32 33 34 35 36 37 38 39 40 41 42 43 44 45 46 47 48 49 50
000
ASUS43 KIWX 162300
RWRIWX

KIWX WEATHER ROUNDUP
NATIONAL WEATHER SERVICE NORTHERN INDIANA
700 PM EDT TUE SEP 16 2014

NOTE: "FAIR" INDICATES FEW OR NO CLOUDS BELOW 12,000 FEET WITH NO
SIGNIFICANT WEATHER AND/OR OBSTRUCTIONS TO VISIBILITY.

* THESE STATIONS ARE NOT UNDER NWS QUALITY CONTROL. THEY ALSO MAY NOT
  REPORT WEATHER SUCH AS PRECIPITATION OR FOG.

INZ001>027-170000-
NORTHERN INDIANA

CITY           SKY/WX    TMP DP  RH WIND       PRES   REMARKS
VALPARAISO     CLEAR     63  46  54 W5        30.11S
SOUTH BEND     CLEAR     62  47  57 NW9       30.12S
ELKHART*       CLEAR     63  46  55 NW9       30.12R
GOSHEN         PTCLDY    60  50  69 W6        30.10S
ANGOLA*        CLEAR     64  54  68 W5        30.10S
FORT WAYNE     PTCLDY    64  48  56 W5        30.11S
PERU/GRISSOM   CLEAR     64  49  59 VRB3      30.10F

$$
INZ028>050-170000-
CENTRAL INDIANA

CITY           SKY/WX    TMP DP  RH WIND       PRES   REMARKS
LAFAYETTE      CLEAR     63  48  58 CALM      30.10F
KOKOMO*        CLEAR     64  45  48 N3        30.10F
MUNCIE*        PTCLDY    62  48  60 E3        30.11F
INDIANAPOLIS   PTCLDY    63  48  58 SE3       30.10S

$$
MIZ043>046-050>051-056>058-064>065-071>073-077>080-170000-
SOUTHWEST LOWER MICHIGAN

CITY           SKY/WX    TMP DP  RH WIND       PRES   REMARKS
BATTLE CREEK   CLEAR     61  44  53 NW12      30.10F
BENTON HARBOR  CLEAR     59  44  57 NW3       30.12S
COLDWATER*     MOCLDY    64  48  56 W3        30.09S
HILLSDALE*     PTCLDY    63  44  48 W6        30.10S
HOLLAND        CLEAR     59  43  55 NW5       30.12F
GRAND RAPIDS   PTCLDY    59  42  53 W14       30.11S
KALAMAZOO      PTCLDY    61  44  53 NW12G21   30.12R
STURGIS*       PTCLDY    61  48  63 W5        30.10R
THREE RIVERS*  FAIR      61  48  62 NW8       30.11R

$$
OHZ001>008-015>018-024>025-170000-
NORTHWEST OHIO

CITY           SKY/WX    TMP DP  RH WIND       PRES   REMARKS
DEFIANCE       CLEAR     65  44  46 CALM      30.10S
FINDLAY        PTCLDY    65  46  50 W10       30.09S
TOLEDO EXPRESS PTCLDY    61  48  62 S3        30.09S
TOLEDO METCALF CLEAR     63  44  50 SW3       30.10S
LIMA           MOCLDY    63  48  58 W6        30.10F

$$
&&



USA.gov is the U.S. government's official web portal to all federal, state and local government web resources and services.